Regional Weather Roundup
Issued by NWS Newport/Morehead, NC

Current Version | Previous Version | Text Only | Print | Product List | Glossary On
Versions: 1 2 3 4 5 6 7 8 9 10 11 12 13 14 15 16 17 18 19 20 21 22 23 24 25 26 27 28 29 30 31 32 33 34 35 36 37 38 39 40 41 42 43 44 45 46 47 48 49 50
000 ASUS42 KMHX 300422 RWRMHX WEATHER ROUNDUP FOR EASTERN NORTH CAROLINA NATIONAL WEATHER SERVICE NEWPORT/MOREHEAD CITY NC 1200 AM EDT SAT AUG 30 2014 NOTE: "FAIR" INDICATES FEW OR NO CLOUDS BELOW 12,000 FEET WITH NO SIGNIFICANT WEATHER AND/OR OBSTRUCTIONS TO VISIBILITY NCZ015>017-031-032-045>047-102-103-300500- NORTH COAST CITY SKY/WX TMP DP RH WIND PRES REMARKS EDENTON MOCLDY 74 67 79 E3 30.19R ELIZABETH CITY CLOUDY 73 64 73 E7 30.20R KITTY HAWK CLEAR 75 66 74 E6 30.18S MANTEO CLOUDY 75 67 76 E9 30.19S $$ NCZ045>047-081-094-103-104-300500- CENTRAL COAST CITY SKY/WX TMP DP RH WIND PRES REMARKS FRISCO MOCLDY 77 75 93 E10 30.16F SWANQUARTER N/A 73 N/A N/A NE3 30.15S $$ NCZ095-097-098-100-101-300500- SOUTHERN COAST CITY SKY/WX TMP DP RH WIND PRES REMARKS BEAUFORT CLEAR 76 74 93 CALM 30.17R CEDAR ISLAND N/A 77 N/A N/A SE1 30.21S JACKSONVILLE CLEAR 77 73 87 E6 30.16R NEWPORT NOT AVBL PINEY ISLAND CLEAR 78 77 96 CALM 30.16S WILMINGTON CLEAR 73 71 93 NE5 30.16R $$ NCZ011>013-027>030-043-044-078>080-089-090>093-098-300500- COASTAL PLAIN CITY SKY/WX TMP DP RH WIND PRES REMARKS AHOSKIE CLEAR 70 66 86 CALM 30.20R CLINTON CLEAR 75 73 94 CALM 30.17S ELIZABETHTOWN CLEAR 74 70 88 CALM 30.16S GOLDSBORO CLEAR 73 73 98 E3 30.16R GREENVILLE MOCLDY 72 68 88 CALM 30.20R HAVELOCK CLEAR 76 73 91 CALM 30.18R KENANSVILLE MOCLDY 75 72 91 E3 30.18S KINSTON PTCLDY 74 71 89 E5 30.19S NEW BERN CLEAR 76 70 82 NE5 30.19R RICHLANDS CLOUDY 73 70 88 CALM 30.18S ROANOKE RAPIDS NOT AVBL ROCKY MOUNT CLOUDY 73 67 81 CALM 30.19S WASHINGTON CLEAR 70 67 90 CALM 30.19S WHITEVILLE CLEAR 73 71 94 CALM 30.15S $$ AMZ130-135-150-152-154-156-158-170-250-252-270-ANZ085-086-088-633-658-670-300500- MARINE OBSERVATIONS STATION/POSITION TIME TEMP WIND PRES WAVE SWELL AIR SEA DIR/SP/G HT/PER HT/PER (UTC) (F) (DEG/KT/KT) (MB) (FT/S) (FT/S) CHESAPEAKE LIGHT 0400 74 110/ 10/ 11 1023.3 BUOY 44014 0400 76 76 90/ 8/ 10 1022.3 3/ 8 2/ 8 DUCK 0400 76 78 70/ 13/ 14 1021.7 2E DUCK 0400 N/A 3/ 8 OREGON INLET 0400 76 79 50/ 7/ 11 1022.0 BUOY 44095 0400 76 N/A 3/ 8 20E OREGON INLET NOT AVBL HATTERAS CG 0400 80 82 110/ 8/ 11 1021.9 DIAMOND BUOY 0400 79 50/ 6/ 8 1021.2 4/ 8 3/ 8 CAPE LOOKOUT 0400 81 100/ 3/ 4 1021.4 BEAUFORT LAB 0400 77 82 20/ 3/ 3 1021.0 30 SE NEW RIVER 0400 82 82 180/ 6/ 6 1021.6 3/ 8 2/ 8 5 SE WRIGHTSVILL 0400 78 81 160/ 8/ 10 N/A BUOY 41002 0328 81 83 130/ 8/ 10 1021.7 3/ 9 3/ 9 BUOY 41004 0400 83 83 160/ 8/ 10 1019.7 3/ 8 3/ 8 $$

USA.gov is the U.S. government's official web portal to all federal, state and local government web resources and services.